User: anonymous   Login
Location: SAPM � Hemmingford
(45.0500°N, 73.5833°W)
Time: 07:32:13
(UTC-04:00)
Language:

Cosmos 1603 - Orbit

View from above orbital plane
View from above orbital plane
View from above satellite
View from above satellite

Ground track
Ground track

The orbit data is extracted from the following two-line orbital elements,

1 15333U 84106A   18110.57021738 -.00000060  00000-0 -67307-5 0  9994
2 15333  71.0248 168.7154 0017613 100.9965 259.3140 14.14064500731717
Epoch (UTC): 20 April 2018 13:41:06
Eccentricity: 0.0017613
inclination: 71.0248°
perigee height: 833 km
apogee height: 858 km
right ascension of ascending node: 168.7154°
argument of perigee: 100.9965°
revolutions per day: 14.14064500
mean anomaly at epoch: 259.3140°
orbit number at epoch: 73171

The dashed part of the orbit path shows where the satellite is in the earth's shadow,  

DLR